TimeEST,TemperatureF,Dew PointF,Humidity,Sea Level PressureIn,VisibilityMPH,Wind Direction,Wind SpeedMPH,Gust SpeedMPH,PrecipitationIn,Events,Conditions,WindDirDegrees,DateUTC
12:15 AM,37.4,15.8,41,29.80,10.0,South,5.8,-,N/A,,Clear,170,2014-01-21 05:15:00
12:35 AM,39.2,15.8,39,29.80,10.0,South,5.8,-,N/A,,Clear,190,2014-01-21 05:35:00
12:55 AM,39.2,15.8,39,29.79,10.0,Calm,Calm,-,N/A,,Clear,0,2014-01-21 05:55:00
1:15 AM,37.4,17.6,45,29.78,10.0,South,3.5,-,N/A,,Clear,180,2014-01-21 06:15:00
1:35 AM,37.4,17.6,45,29.77,10.0,SSW,3.5,-,N/A,,Scattered Clouds,210,2014-01-21 06:35:00
1:55 AM,37.4,17.6,45,29.76,10.0,WSW,4.6,-,N/A,,Scattered Clouds,240,2014-01-21 06:55:00
2:15 AM,37.4,17.6,45,29.75,10.0,SSW,4.6,-,N/A,,Mostly Cloudy,200,2014-01-21 07:15:00
2:35 AM,37.4,19.4,48,29.75,10.0,SW,5.8,-,N/A,,Mostly Cloudy,220,2014-01-21 07:35:00
2:55 AM,39.2,19.4,45,29.73,10.0,SW,5.8,-,N/A,,Scattered Clouds,220,2014-01-21 07:55:00
3:15 AM,37.4,19.4,48,29.74,10.0,Calm,Calm,-,N/A,,Clear,0,2014-01-21 08:15:00
3:35 AM,37.4,19.4,48,29.72,10.0,South,4.6,-,N/A,,Clear,190,2014-01-21 08:35:00
3:55 AM,35.6,19.4,52,29.72,10.0,SSW,6.9,-,N/A,,Clear,210,2014-01-21 08:55:00
4:15 AM,37.4,19.4,48,29.71,10.0,South,3.5,-,N/A,,Clear,180,2014-01-21 09:15:00
4:35 AM,37.4,19.4,48,29.70,10.0,SSE,5.8,-,N/A,,Clear,150,2014-01-21 09:35:00
4:55 AM,37.4,19.4,48,29.70,10.0,SE,5.8,-,N/A,,Clear,140,2014-01-21 09:55:00
5:15 AM,39.2,19.4,45,29.70,10.0,South,5.8,-,N/A,,Scattered Clouds,170,2014-01-21 10:15:00
5:35 AM,39.2,19.4,45,29.69,10.0,SSE,4.6,-,N/A,,Mostly Cloudy,160,2014-01-21 10:35:00
5:55 AM,37.4,19.4,48,29.68,10.0,Calm,Calm,-,N/A,,Overcast,0,2014-01-21 10:55:00
6:15 AM,37.4,17.6,45,29.68,10.0,Calm,Calm,-,N/A,,Overcast,0,2014-01-21 11:15:00
6:35 AM,39.2,17.6,42,29.66,10.0,Calm,Calm,-,N/A,,Overcast,0,2014-01-21 11:35:00
6:55 AM,39.2,17.6,42,29.66,10.0,Calm,Calm,-,N/A,,Overcast,0,2014-01-21 11:55:00
7:15 AM,37.4,19.4,48,29.68,10.0,West,3.5,-,N/A,,Mostly Cloudy,260,2014-01-21 12:15:00
7:35 AM,37.4,19.4,48,29.68,10.0,West,4.6,-,N/A,,Mostly Cloudy,270,2014-01-21 12:35:00
7:55 AM,39.2,19.4,45,29.67,10.0,NE,3.5,-,N/A,,Overcast,40,2014-01-21 12:55:00
8:15 AM,35.6,21.2,56,29.66,10.0,East,8.1,-,N/A,,Overcast,80,2014-01-21 13:15:00
8:35 AM,33.8,21.2,60,29.64,10.0,East,9.2,-,N/A,,Overcast,90,2014-01-21 13:35:00
8:55 AM,33.8,21.2,60,29.64,10.0,ENE,8.1,-,N/A,,Overcast,70,2014-01-21 13:55:00
9:15 AM,33.8,23.0,65,29.64,10.0,Calm,Calm,-,N/A,,Mostly Cloudy,0,2014-01-21 14:15:00
9:35 AM,33.8,23.0,65,29.65,10.0,NE,3.5,-,N/A,,Overcast,40,2014-01-21 14:35:00
9:55 AM,32.0,24.8,75,29.64,7.0,Calm,Calm,-,N/A,Snow,Light Snow,0,2014-01-21 14:55:00
10:15 AM,33.8,24.8,70,29.63,10.0,ENE,6.9,-,N/A,Snow,Light Snow,60,2014-01-21 15:15:00
10:35 AM,33.8,26.6,75,29.63,10.0,North,4.6,-,N/A,,Scattered Clouds,360,2014-01-21 15:35:00
10:55 AM,33.8,26.6,75,29.63,10.0,NNW,4.6,-,N/A,,Scattered Clouds,340,2014-01-21 15:55:00
11:15 AM,35.6,26.6,70,29.62,7.0,North,3.5,-,N/A,Snow,Light Snow,10,2014-01-21 16:15:00
11:35 AM,37.4,26.6,65,29.62,7.0,North,4.6,-,N/A,Snow,Light Snow,350,2014-01-21 16:35:00
11:55 AM,35.6,26.6,70,29.61,3.0,NW,5.8,-,N/A,Snow,Light Snow,310,2014-01-21 16:55:00
12:15 PM,33.8,28.4,81,29.59,0.8,Calm,Calm,-,N/A,Snow,Light Snow,0,2014-01-21 17:15:00
12:35 PM,33.8,28.4,81,29.58,10.0,Calm,Calm,-,0.01,,Scattered Clouds,0,2014-01-21 17:35:00
12:55 PM,35.6,30.2,81,29.56,10.0,WNW,3.5,-,N/A,,Scattered Clouds,290,2014-01-21 17:55:00
1:15 PM,35.6,30.2,81,29.56,5.0,WNW,6.9,-,N/A,Snow,Light Snow,290,2014-01-21 18:15:00
1:35 PM,33.8,30.2,87,29.55,0.2,WSW,5.8,-,N/A,Snow,Light Snow,250,2014-01-21 18:35:00
1:55 PM,33.8,30.2,87,29.55,5.0,WNW,4.6,-,N/A,Snow,Light Snow,300,2014-01-21 18:55:00
2:15 PM,33.8,30.2,87,29.56,2.5,WNW,11.5,-,N/A,Snow,Light Snow,290,2014-01-21 19:15:00
2:35 PM,32.0,28.4,87,29.57,0.2,WNW,13.8,25.3,0.01,Snow,Snow,300,2014-01-21 19:35:00
2:55 PM,33.8,28.4,81,29.57,2.0,WNW,15.0,19.6,N/A,Snow,Light Snow,290,2014-01-21 19:55:00
3:15 PM,32.0,26.6,80,29.58,5.0,WNW,13.8,24.2,N/A,Snow,Light Snow,290,2014-01-21 20:15:00
3:35 PM,30.2,26.6,86,29.59,2.5,WNW,16.1,-,N/A,Snow,Light Snow,300,2014-01-21 20:35:00
3:55 PM,30.2,26.6,86,29.60,10.0,WNW,17.3,21.9,N/A,,Overcast,300,2014-01-21 20:55:00
4:15 PM,30.2,24.8,80,29.60,10.0,NW,17.3,23.0,N/A,,Overcast,320,2014-01-21 21:15:00
4:35 PM,28.4,21.2,74,29.62,10.0,NW,18.4,29.9,N/A,,Overcast,320,2014-01-21 21:35:00
4:55 PM,28.4,21.2,74,29.64,10.0,NW,18.4,27.6,N/A,,Overcast,310,2014-01-21 21:55:00
5:15 PM,26.6,17.6,69,29.65,10.0,NW,20.7,27.6,N/A,,Mostly Cloudy,320,2014-01-21 22:15:00
5:35 PM,26.6,17.6,69,29.67,10.0,NW,19.6,27.6,N/A,,Mostly Cloudy,320,2014-01-21 22:35:00
5:55 PM,24.8,17.6,74,29.68,10.0,NW,21.9,27.6,N/A,,Overcast,320,2014-01-21 22:55:00
6:15 PM,24.8,15.8,69,29.70,10.0,WNW,21.9,27.6,N/A,,Overcast,300,2014-01-21 23:15:00
6:35 PM,23.0,15.8,74,29.71,10.0,NW,25.3,28.8,N/A,Snow,Light Snow,320,2014-01-21 23:35:00
6:55 PM,21.2,12.2,68,29.71,10.0,NW,18.4,25.3,N/A,,Overcast,320,2014-01-21 23:55:00
7:15 PM,19.4,10.4,68,29.73,10.0,NW,18.4,27.6,N/A,Snow,Light Snow,320,2014-01-22 00:15:00
7:35 PM,19.4,10.4,68,29.74,10.0,NNW,21.9,27.6,N/A,,Overcast,330,2014-01-22 00:35:00
7:55 PM,19.4,8.6,63,29.75,10.0,NNW,15.0,21.9,N/A,,Mostly Cloudy,330,2014-01-22 00:55:00
8:15 PM,19.4,8.6,63,29.74,10.0,NNW,18.4,24.2,N/A,,Scattered Clouds,330,2014-01-22 01:15:00
8:35 PM,17.6,10.4,73,29.76,10.0,NNW,21.9,27.6,N/A,,Scattered Clouds,330,2014-01-22 01:35:00
8:55 PM,17.6,10.4,73,29.77,10.0,NNW,19.6,24.2,N/A,,Mostly Cloudy,330,2014-01-22 01:55:00
9:15 PM,17.6,10.4,73,29.77,10.0,NNW,20.7,29.9,N/A,Snow,Light Snow,340,2014-01-22 02:15:00
9:35 PM,17.6,10.4,73,29.78,10.0,NW,17.3,25.3,N/A,Snow,Light Snow,320,2014-01-22 02:35:00
9:55 PM,17.6,10.4,73,29.77,10.0,NW,24.2,28.8,N/A,Snow,Light Snow,320,2014-01-22 02:55:00
10:15 PM,17.6,8.6,68,29.78,5.0,NW,18.4,28.8,N/A,Snow,Light Snow,320,2014-01-22 03:15:00
10:35 PM,15.8,8.6,73,29.79,4.0,NNW,16.1,26.5,N/A,Snow,Light Snow,330,2014-01-22 03:35:00
10:55 PM,15.8,8.6,73,29.78,10.0,NNW,20.7,29.9,N/A,Snow,Light Snow,330,2014-01-22 03:55:00
11:15 PM,15.8,6.8,68,29.78,10.0,NW,13.8,24.2,N/A,,Scattered Clouds,320,2014-01-22 04:15:00
11:35 PM,15.8,6.8,68,29.78,10.0,NNW,13.8,20.7,N/A,,Scattered Clouds,330,2014-01-22 04:35:00
11:55 PM,15.8,6.8,68,29.78,10.0,NNW,16.1,23.0,N/A,,Mostly Cloudy,340,2014-01-22 04:55:00